Regional Weather Roundup
Issued by NWS State College, PA

Home | Current Version | Previous Version | Graphics & Text | Print | Product List | Glossary Off
Versions: 1 2 3 4 5 6 7 8 9 10 11 12 13 14 15 16 17 18 19 20 21 22 23 24 25 26 27 28 29 30 31 32 33 34 35 36 37 38 39 40 41 42 43 44 45 46 47 48 49 50

000
ASUS41 KCTP 011303
RWRCTP

REGIONAL WEATHER ROUNDUP
NATIONAL WEATHER SERVICE STATE COLLEGE PA
900 AM EDT WED OCT 01 2014

Note: "fair" indicates few or no clouds below 12,000 feet with no
significant weather and/or obstructions to visibility.

* = STATION THAT DOES NOT REPORT PRECIPITATION /E.G. RAIN...SNOW...ETC/
    THUNDER OR FOG.

PAZ002>004-007>009-013>016-020>023-029>032-011400-
WESTERN PENNSYLVANIA

CITY           SKY/WX    TMP DP  RH WIND       PRES   REMARKS
ERIE           MOSUNNY   59  56  89 E5        30.02S
MEADVILLE      FOG       56  54  93 NE6       30.03R VSB 1/2
FRANKLIN*      CLOUDY    54  52  94 E7        30.05R VSB 1/4
NEW CASTLE     FOG       55  55 100 CALM      30.04R VSB 3/4
BEAVER COUNTY  FOG       55  54  94 CALM      30.02R VSB 1
BUTLER*        CLOUDY    54  50  87 NE5       30.05R VSB 1/4
PITTSBURGH INT DRZL/FOG  54  54 100 E5        30.02R VSB 1/16
PITTSBURGH     FOG       55  53  93 CALM      30.02R VSB<1/4
INDIANA*       SUNNY     55  54  94 CALM      30.06R
LATROBE        SUNNY     55  55 100 CALM      30.03R
WASHINGTON CO* CLOUDY    55  54  94 CALM      30.04R VSB 3/4
$$

PAZ004>006-010>012-017>019-024>028-033>037-041-042-045-046-049>053-011400-
CENTRAL PENNSYLVANIA

CITY           SKY/WX    TMP DP  RH WIND       PRES   REMARKS
BRADFORD       FOG       54  53  97 E3        30.07R VSB 1/4
DUBOIS         FOG       53  53 100 E5        30.04R VSB 1/2
CLEARFIELD     FOG       54  54 100 NE6       30.05R VSB<1/4
JOHNSTOWN      CLOUDY    56  54  93 SE3       30.04R
ALTOONA        CLOUDY    59  58  96 E3        30.04R FOG
STATE COLLEGE  FOG       54  54 100 CALM      30.05R VSB 1
WILLIAMSPORT   PTSUNNY   63  58  83 CALM      30.03R
SELINSGROVE    CLOUDY    59  57  93 CALM      30.06R FOG
FT INDIANTOWN  CLOUDY    59  59 100 S2        30.05R FOG
CAPITAL CITY   CLOUDY    62  59  90 CALM      30.05R
HARRISBURG     CLOUDY    60  59  96 NE6       30.04R FOG
YORK           PTSUNNY   63  60  90 NE3       30.04S FOG
$$

PAZ038>040-043-044-047-048-054-055-060>062-067>071-011400-
EASTERN PENNSYLVANIA

CITY           SKY/WX    TMP DP  RH WIND       PRES   REMARKS
SCRANTON       CLOUDY    62  55  77 CALM      30.05R
MOUNT POCONO   CLOUDY    57  54  89 NE10      30.06R
ALLENTOWN      MOSUNNY   62  56  80 NE6       30.05R
QUAKERTOWN*    MOSUNNY   59  57  94 NE3       30.05R
READING        MOSUNNY   64  58  80 NE5       30.03R
LANCASTER      CLOUDY    60  58  92 E5        30.04R FOG
COATESVILLE    CLOUDY    59  57  94 NE5       30.05R FOG
POTTSTOWN      MOSUNNY   63  57  81 VRB6      30.05R
BLUE BELL      CLOUDY    63  59  88 CALM      30.03R
DOYLESTOWN     MOSUNNY   62  57  83 NE6       30.03R
WILLOW GROVE   NOT AVBL
NORTH PHILA    SUNNY     66  56  70 NE7       30.04R
PHILADELPHIA   PTSUNNY   66  58  75 NE8       30.02R
$$


USA.gov is the U.S. government's official web portal to all federal, state and local government web resources and services.